Location: Mahannah Oil Field
(37.4664°N, 96.6003°W)
Time: 09:10:53
(UTC+00:00)

Courier 1B - Pass Details

Date: 26 January 2021
Orbit: 962 x 1209 km, 28.3° (Epoch: 02 March)

Event Time Altitude Azimuth Distance (km) Brightness Sun altitude
Rises 08:02:05 0° 260° (W) 3,690 - -63.8°
Reaches altitude 10° 08:05:01 10° 251° (WSW) 2,717 - -63.4°
Maximum altitude 08:10:47 33° 189° (S) 1,540 - -62.5°
Drops below altitude 10° 08:16:28 10° 127° (SE) 2,687 - -61.6°
Sets 08:19:22 0° 118° (ESE) 3,643 - -61.1°
